Location: Marstown
(39.5056°N, 77.0820°W)
Time: 04:35:25
(UTC-04:00)

ACS3 Solar Sail - Pass Details

Date: 11 May 2026
Orbit: 877 x 953 km, 97.2° (Epoch: 8 June)

Event Time Altitude Azimuth Distance (km) Brightness Sun altitude
Rises 01:53:52 0° 12° (NNE) 3,499 5.9 -31.5°
Reaches altitude 10° 01:56:17 10° 14° (NNE) 2,548 4.9 -31.3°
Enters shadow 02:01:12 66° 38° (NE) 955 1.8 -31.1°
